Location: Concepci�n
(32.5333°N, 117.1167°W)
Time: 11:57:31
(UTC+00:00)

Lacrosse 4 Rocket - Pass Details

Date: 08 May 2021
Orbit: 541 x 616 km, 68.0° (Epoch: 15 June)

Event Time Altitude Azimuth Distance (km) Brightness Sun altitude
Exits shadow 12:24:19 - 266° (W) 2,264 3.9 -6.8°
Reaches altitude 10° 12:25:46 10° 281° (WNW) 1,974 3.7 -6.5°
Maximum altitude 12:27:36 12° 306° (NW) 1,824 3.7 -6.2°
Drops below altitude 10° 12:29:26 10° 331° (NNW) 1,971 4.1 -5.8°
Sets 12:33:03 0° 1° (N) 2,869 5.3 -5.1°
